默认 日期 大小 文件数 浏览量 最新下载 xml
cardio磁力链接相关资源由用户搜索指令自动获取,结果来源于网络,本站不存储任何资料,亦不承担任何责任,请于24小时内删除,搜索到498个磁力,用时0ms。
    {"1.1 - Nitrates.mp4": 49302506, "4.2 - Class II.mp4": 25296597, "4.4 - Class IV.mp4": 23495119, "4.3 - Class III.mp4": 28332910, "4.5 - _Class V_.mp4": 30430477, "4.1 - Class I A-C.mp4": 50062756, "3.1 - Calcium channel blockers.mp4": 49910139, "1.1 - ...
创建时间: 2019-11-17 08:16:00 大小:430.11 MB 文件数量:10 热度:6 最近下载:2025-01-09 15:01:48
    {"Torrent downloaded from Demonoid.com.txt": 47, "Cardio Bellydance Workout with Melissa DVD Rip.avi": 475289600}
创建时间: 2019-11-20 23:13:12 大小:453.27 MB 文件数量:2 热度:6 最近下载:2025-03-18 07:49:02
    {"crunch-cardio sculpt.avi": 409892398, "Bonus - 10 minute Buns.avi": 113251968}
创建时间: 2019-11-26 20:57:41 大小:498.91 MB 文件数量:2 热度:7 最近下载:2025-01-29 23:36:03
    {"Torrent_downloaded_from_Demonoid.me.txt": 46, "Bob Harper Kettlebell Cardio Shred ISO.iso": 2696642560, "Bob Harper Kettlebell Sculpted Body ISO.iso": 2493775872}
创建时间: 2019-12-19 03:55:21 大小:4.83 GB 文件数量:3 热度:8 最近下载:2024-10-08 03:23:01
    ... min).avi": 307926350, "KettleWorX - Cardio Level 2 - Week 2 (26 ... min).avi": 307677688, "KettleWorX - Cardio Level 2 - Week 3 (26 ... min).avi": 307640418, "KettleWorX - Cardio Level 2 - Week 4 (26 ... min).avi": 307948780, "KettleWorX - Cardio Level 2 - Week 5 (26 ...
创建时间: 2019-12-21 10:38:01 大小:1.72 GB 文件数量:6 热度:5 最近下载:2024-10-15 19:32:01
    {"Killer Cardio - Level 1.mp4": 404174364, "Killer Cardio - Level 2.mp4": 428534450}
创建时间: 2019-12-23 08:40:45 大小:794.13 MB 文件数量:2 热度:7 最近下载:2025-02-11 06:43:02
    {"OpenSans_Regular.tff": 259858, "!IMPORTANT NOTICE!.txt": 85, "Add PDF OpenSans fonts.bat": 122, "cardio force - high intensity interval training.pdf": 5244077}
创建时间: 2019-12-28 07:46:35 大小:5.25 MB 文件数量:4 热度:5 最近下载:2025-01-11 07:56:02
    {"folder.jpg": 426164, "16. Max Scampoli - Believe (Radio Edit).mp3": 8606298, "01. Jack Mazzoni - The Show (Radio Edit).mp3": 6926104, "10. The Maximum - La Fuerza (Radio Edit).mp3": 6881174, "15. 4 Mind's - You Make Me Feel (Radio Edit).mp3": ...
创建时间: 2019-12-31 06:31:19 大小:148.93 MB 文件数量:21 热度:4 最近下载:2025-02-25 17:52:04
    {"Torrent Downloaded From ExtraTorrent.cc.txt": 446, "TheRealWorkout Jenna Foxx - Fucking For Cardio 14.06.2016 540p.mp4": 725217650}
创建时间: 2020-01-04 08:02:17 大小:691.62 MB 文件数量:2 热度:5 最近下载:2025-02-12 15:04:02
    {"059. Misha - Vamos.mp3": 8344904, "069. Axero - Power.mp3": 7714333, "029. XODOMA - Bad Girl.mp3": 9911530, "056. Tsaho - Narcissus.mp3": 10114209, "071. Doggy Shake - Boom.mp3": 13049365, "065. Heimkind - Beta Gamma.mp3": 9046326, "043. DJ STP - Mi Come ...
创建时间: 2020-01-19 10:23:13 大小:1018.85 MB 文件数量:100 热度:5 最近下载:2024-12-10 18:54:02
    ... Days.mp4": 109652594}, "Cardio Kickbox #1.mp4": 224125488, "Cardio Kickbox #2.mp4 ... ": 220599884, "Cardio Kickbox #3.mp4 ... #6.mp4": 215943006, "Cardio Kickbox #7.mp4": 211822836, "Cardio Kickbox #1 Breakdown ...
创建时间: 2020-01-23 01:32:51 大小:2.24 GB 文件数量:22 热度:11 最近下载:2025-06-07 21:44:02
    {"VIDEO_TS": {"VIDEO_TS.BUP": 12288, "VIDEO_TS.IFO": 12288, "VIDEO_TS.VOB": 1046528, "VTS_01_0.BUP": 55296, "VTS_01_0.IFO": 55296, "VTS_01_0.VOB": 1300480, "VTS_01_1.VOB": 1073739776, "VTS_01_2.VOB": 1073739776, "VTS_01_3.VOB": 1073739776, "VTS_01_4.VOB": ...
创建时间: 2020-01-31 15:07:08 大小:3.82 GB 文件数量:14 热度:5 最近下载:2025-03-09 02:57:03
    {"Screenshot.png": 40923, "freaky_cardio_sd.mp4": 486608310, "Torrent downloaded from PornLeech.com.nfo": 46}
创建时间: 2020-02-26 23:41:05 大小:464.1 MB 文件数量:3 热度:15 最近下载:2025-02-19 20:58:03
    {"folder.jpg": 104597, "29. Madtune - Go Boom (Workout Mix 108 BPM).mp3": 10263978, "05. SuperFitness - 365 (Workout Mix 133 BPM).mp3": 10087390, "15. SuperFitness - Giant (Workout Mix 132 BPM).mp3": 11908653, "10. Turbotronic - So Good ( ...
创建时间: 2020-03-07 19:40:24 大小:262.9 MB 文件数量:31 热度:8 最近下载:2025-03-14 03:44:03
    {"folder.jpg": 104597, "Torrent Downloaded from RARBG.to.txt": 40, "29. Madtune - Go Boom (Workout Mix 108 BPM).mp3": 10263978, "05. SuperFitness - 365 (Workout Mix 133 BPM).mp3": 10087390, "15. SuperFitness - Giant (Workout Mix 132 BPM).mp3": ...
创建时间: 2020-03-15 08:38:02 大小:262.9 MB 文件数量:32 热度:8 最近下载:2025-02-27 16:38:02
    {"The 90-Day Home Workout Plan.epub": 1799125}
创建时间: 2020-03-22 10:03:04 大小:1.72 MB 文件数量:1 热度:9 最近下载:2025-02-11 19:42:02
    {"Level 1.mp4": 285907925, "Level 2.mp4": 234201373, "Level 3.mp4": 240641352, "Warm Up.mp4": 73271819, "Cool Down.mp4": 93675672, "Downloaded From 1337X.to.txt": 96, "Downloaded From Demonoid.is.txt": 58, "Downloaded From TorrentGalaxy.to.txt": 583}
创建时间: 2020-03-22 15:19:44 大小:884.72 MB 文件数量:8 热度:5 最近下载:2025-01-19 16:52:02
    {"folder.jpg": 104597, "29. Madtune - Go Boom (Workout Mix 108 BPM).mp3": 10263978, "05. SuperFitness - 365 (Workout Mix 133 BPM).mp3": 10087390, "15. SuperFitness - Giant (Workout Mix 132 BPM).mp3": 11908653, "10. Turbotronic - So Good ( ...
创建时间: 2020-04-01 16:24:24 大小:262.9 MB 文件数量:31 热度:6 最近下载:2025-05-01 12:48:01
    {"Tracy Anderson - Dance plus Cardio Training.rar": 614838360}
创建时间: 2020-04-14 01:43:18 大小:586.36 MB 文件数量:1 热度:6 最近下载:2025-03-27 12:49:04
    {"22455-540p.mp4": 512181405}
创建时间: 2020-04-16 15:42:29 大小:488.45 MB 文件数量:1 热度:10 最近下载:2025-03-27 03:39:02